This demonstration page uses our WeatherBlox Daily Observations layout. Learn more.

Left ArrowRight Arrow

Hourly Observations for December 20, 2015

Temp ( °F °C ) Dew Point ( °F °C ) Humidity (%) Winds ( mph kmh ) Pressure ( in mb ) Visibility ( mi km ) Precip ( " mm )
12:15 am 00:15 Clear 32 0 23 -5 69 69 WNW 10 17 30.48 1032 10 16 0.00 0.00
12:55 am 00:55 Clear 34 1 21 -6 60 60 WNW 7 11 30.48 1032 10 16 0.00 0.00
1:15 am 01:15 Clear 36 2 21 -6 56 56 SSE 5 7 30.48 1032 10 16 0.00 0.00
1:35 am 01:35 Clear 36 2 21 -6 56 56 W 5 7 30.48 1032 10 16 0.00 0.00
1:55 am 01:55 Clear 36 2 21 -6 56 56 W 9 15 30.48 1032 10 16 0.00 0.00
2:15 am 02:15 Clear 36 2 21 -6 56 56 WNW 10 17 30.50 1033 10 16 0.00 0.00
2:35 am 02:35 Clear 34 1 21 -6 60 60 WNW 10 17 30.50 1033 10 16 0.00 0.00
2:55 am 02:55 Clear 34 1 21 -6 60 60 W 9 15 30.50 1033 10 16 0.00 0.00
3:15 am 03:15 Clear 34 1 21 -6 60 60 WNW 10 17 30.53 1034 10 16 0.00 0.00
3:35 am 03:35 Clear 34 1 19 -7 56 56 WNW 12 19 30.53 1034 10 16 0.00 0.00
3:55 am 03:55 Clear 34 1 19 -7 56 56 NW 8 13 30.53 1034 10 16 0.00 0.00
4:15 am 04:15 Clear 34 1 19 -7 56 56 NW 7 11 30.53 1034 10 16 0.00 0.00
4:35 am 04:35 Clear 34 1 18 -8 51 51 NNW 8 13 30.53 1034 10 16 0.00 0.00
4:55 am 04:55 Clear 34 1 18 -8 51 51 NW 8 13 30.53 1034 10 16 0.00 0.00
5:15 am 05:15 Clear 32 0 19 -7 60 60 NW 10 17 30.53 1034 10 16 0.00 0.00
5:35 am 05:35 Clear 34 1 18 -8 51 51 N 3 6 30.53 1034 10 16 0.00 0.00
5:55 am 05:55 Clear 32 0 19 -7 60 60 Calm 30.53 1034 10 16 0.00 0.00
6:15 am 06:15 Clear 32 0 19 -7 60 60 Calm 30.53 1034 10 16 0.00 0.00
6:35 am 06:35 Clear 32 0 21 -6 64 64 N 3 6 30.56 1035 10 16 0.00 0.00
6:55 am 06:55 Clear 32 0 19 -7 60 60 N 5 7 30.56 1035 10 16 0.00 0.00
7:15 am 07:15 Clear 30 -1 21 -6 69 69 NNW 3 6 30.56 1035 10 16 0.00 0.00
7:35 am 07:35 Sunny 30 -1 21 -6 69 69 Calm 30.56 1035 10 16 0.00 0.00
7:55 am 07:55 Sunny 30 -1 21 -6 69 69 Calm 30.56 1035 10 16 0.00 0.00
8:15 am 08:15 Sunny 32 0 21 -6 64 64 Calm 30.56 1035 10 16 0.00 0.00
8:35 am 08:35 Sunny 32 0 19 -7 60 60 N 5 7 30.59 1036 10 16 0.00 0.00
8:55 am 08:55 Sunny 34 1 19 -7 56 56 Calm 30.59 1036 10 16 0.00 0.00
9:15 am 09:15 Sunny 36 2 19 -7 52 52 Calm 30.59 1036 10 16 0.00 0.00
9:35 am 09:35 Sunny 37 3 19 -7 48 48 Calm 30.62 1037 10 16 0.00 0.00
9:55 am 09:55 Sunny 37 3 18 -8 45 45 Calm 30.62 1037 10 16 0.00 0.00
10:15 am 10:15 Sunny 39 4 19 -7 45 45 NNW 3 6 30.62 1037 10 16 0.00 0.00
10:35 am 10:35 Sunny 41 5 19 -7 42 42 WNW 6 9 30.62 1037 10 16 0.00 0.00
10:55 am 10:55 Sunny 41 5 19 -7 42 42 Calm 30.62 1037 10 16 0.00 0.00
11:15 am 11:15 Sunny 41 5 19 -7 42 42 Calm 30.59 1036 10 16 0.00 0.00
11:35 am 11:35 Sunny 43 6 19 -7 39 39 Calm 30.59 1036 10 16 0.00 0.00
11:55 am 11:55 Sunny 43 6 19 -7 39 39 S 7 11 30.56 1035 10 16 0.00 0.00
12:15 pm 12:15 Sunny 45 7 21 -6 39 39 SW 6 9 30.56 1035 10 16 0.00 0.00
12:35 pm 12:35 Sunny 45 7 21 -6 39 39 SSW 5 7 30.53 1034 10 16 0.00 0.00
12:55 pm 12:55 Sunny 45 7 21 -6 39 39 SW 7 11 30.53 1034 10 16 0.00 0.00
1:15 pm 13:15 Sunny 45 7 23 -5 42 42 S 5 7 30.53 1034 10 16 0.00 0.00
1:35 pm 13:35 Sunny 45 7 21 -6 39 39 Calm 30.53 1034 10 16 0.00 0.00
1:55 pm 13:55 Sunny 46 8 23 -5 40 40 SSE 6 9 30.53 1034 10 16 0.00 0.00
2:15 pm 14:15 Sunny 46 8 23 -5 40 40 Calm 30.53 1034 10 16 0.00 0.00
2:35 pm 14:35 Sunny 46 8 23 -5 40 40 S 7 11 30.53 1034 10 16 0.00 0.00
2:55 pm 14:55 Sunny 46 8 23 -5 40 40 S 6 9 30.53 1034 10 16 0.00 0.00
3:15 pm 15:15 Sunny 46 8 23 -5 40 40 S 7 11 30.53 1034 10 16 0.00 0.00
3:35 pm 15:35 Sunny 46 8 23 -5 40 40 S 8 13 30.50 1033 10 16 0.00 0.00
3:55 pm 15:55 Sunny 46 8 23 -5 40 40 SSE 6 9 30.48 1032 10 16 0.00 0.00
4:15 pm 16:15 Sunny 46 8 23 -5 40 40 SSE 3 6 30.50 1033 10 16 0.00 0.00
4:35 pm 16:35 Sunny 45 7 23 -5 42 42 SSE 5 7 30.50 1033 10 16 0.00 0.00
4:55 pm 16:55 Clear 45 7 25 -4 46 46 S 6 9 30.50 1033 10 16 0.00 0.00
5:15 pm 17:15 Clear 43 6 27 -3 53 53 S 5 7 30.53 1034 10 16 0.00 0.00
5:35 pm 17:35 Clear 43 6 25 -4 49 49 SSE 8 13 30.50 1033 10 16 0.00 0.00
5:55 pm 17:55 Clear 43 6 27 -3 53 53 SSE 7 11 30.53 1034 10 16 0.00 0.00
6:15 pm 18:15 Clear 43 6 27 -3 53 53 SSE 9 15 30.50 1033 10 16 0.00 0.00
6:35 pm 18:35 Clear 43 6 27 -3 53 53 SSE 8 13 30.53 1034 10 16 0.00 0.00
6:55 pm 18:55 Clear 41 5 27 -3 57 57 SSE 7 11 30.53 1034 10 16 0.00 0.00
7:15 pm 19:15 Clear 41 5 27 -3 57 57 SSE 8 13 30.50 1033 10 16 0.00 0.00
7:35 pm 19:35 Clear 41 5 27 -3 57 57 SSE 6 9 30.50 1033 10 16 0.00 0.00
7:55 pm 19:55 Clear 39 4 27 -3 61 61 SSE 7 11 30.50 1033 10 16 0.00 0.00
8:15 pm 20:15 Clear 39 4 28 -2 65 65 Calm 30.50 1033 10 16 0.00 0.00
8:35 pm 20:35 Clear 37 3 28 -2 70 70 S 3 6 30.48 1032 10 16 0.00 0.00
8:55 pm 20:55 Clear 37 3 28 -2 70 70 S 5 7 30.48 1032 10 16 0.00 0.00
9:15 pm 21:15 Clear 37 3 28 -2 70 70 SSE 6 9 30.48 1032 10 16 0.00 0.00
9:35 pm 21:35 Clear 37 3 28 -2 70 70 S 6 9 30.48 1032 10 16 0.00 0.00
9:55 pm 21:55 Clear 36 2 28 -2 75 75 Calm 30.48 1032 10 16 0.00 0.00
10:15 pm 22:15 Clear 36 2 28 -2 75 75 S 3 6 30.48 1032 10 16 0.00 0.00
10:35 pm 22:35 Clear 36 2 28 -2 75 75 S 3 6 30.48 1032 10 16 0.00 0.00
10:55 pm 22:55 Clear 36 2 28 -2 75 75 SSE 7 11 30.48 1032 10 16 0.00 0.00
11:15 pm 23:15 Clear 37 3 28 -2 70 70 S 10 17 30.45 1031 10 16 0.00 0.00
11:35 pm 23:35 Clear 37 3 28 -2 70 70 S 8 13 30.45 1031 10 16 0.00 0.00
11:55 pm 23:55 Clear 37 3 30 -1 75 75 S 7 11 30.45 1031 10 16 0.00 0.00

Powered by AerisWeather